Weather in Istra-1

Russia / Moscow Oblast     55°52′18″N   36°50′26″E
temp.,
°C
wind,
m/s
gust,
m/s
humid.,
%
clouds,
%
prec.,
mm/h
press.,
hPa
HPBL,
m
28 september, tue
tue2800:00+8nne4991100 0.1 1025725
03:00+7nne3893100 0.4 1026611
06:00+6ne4889100 0.5 1028788
09:00+6ne4788100 0.5 1029660
12:00+7ene3680100 0.1 1031987
15:00+9ene356252 0.1 10311141
18:00+7nne227542 0.0 103331
21:00+4ene22847 0.0 103428
29 september, wed
wed2900:00+3nne11895 0.0 103510
03:00+2n22915 0.0 103612
06:00+2n22917 0.0 103628
09:00+6nne247365 0.0 1036241
12:00+10nne235730 0.0 1036818
15:00+12n235398 0.0 10341083
18:00+8n2274100 0.0 103524
21:00+5n228675 0.0 103523
30 september, thu
thu3000:00+5n118921 0.0 103513
03:00+5nnw228774 0.0 103634
06:00+6nnw228595 0.0 103664
09:00+8n127570 0.0 1036189
12:00+12nne016173 0.0 1035805
15:00+12ssw116193 0.0 1035816
18:00+9ssw117523 0.0 103411
21:00+7sw228623 0.0 103532
1 october, fri
fri100:00+6wsw22901 0.0 103619
03:00+5wsw22930 0.0 103618
06:00+5wsw22944 0.0 103615
09:00+8wsw12785 0.0 1036197
12:00+12wsw22625 0.0 1035778
15:00+14wsw22565 0.0 10341035
18:00+9sw22765 0.0 103410
21:00+7sw22855 0.0 103526
2 october, sat
sat200:00+6wsw22905 0.0 103518
03:00+5sw22925 0.0 103519
06:00+4sw22945 0.0 103417
09:00+8sw237714 0.0 1034198
12:00+13sw235916 0.0 1034756
15:00+14sw23559 0.0 10331034
18:00+10ssw22765 0.0 103311
21:00+8ssw22841 0.0 103324